| time (UTC) | temp F | wind direction | speed knots | gust knots | rain 1hr in | rain 24hr in | rain mn in | humidity % | barometer mb |
| 20260510180155 | 81 | 49 | 0.9 | 5.2 | 0.00 | 0.00 | 0.00 | 55 | 1005.5 |
| 20260510175654 | 81 | 357 | 0.9 | 3.5 | 0.00 | 0.00 | 0.00 | 54 | 1005.6 |
| 20260510175414 | 81 | 66 | 0.0 | 2.6 | 0.00 | 0.00 | 0.00 | 53 | 1005.6 |
| 20260510174654 | 82 | 241 | 0.0 | 1.7 | 0.00 | 0.00 | 0.00 | 52 | 1005.6 |
| 20260510174151 | 81 | 91 | 0.9 | 4.3 | 0.00 | 0.00 | 0.00 | 54 | 1005.6 |
| 20260510173649 | 81 | 77 | 0.9 | 4.3 | 0.00 | 0.00 | 0.00 | 55 | 1005.6 |
| 20260510173146 | 81 | 224 | 0.0 | 2.6 | 0.00 | 0.00 | 0.00 | 57 | 1005.5 |
| 20260510172647 | 81 | 358 | 0.0 | 2.6 | 0.00 | 0.00 | 0.00 | 55 | 1005.5 |
| 20260510172406 | 81 | 229 | 0.9 | 4.3 | 0.00 | 0.00 | 0.00 | 56 | 1005.6 |
| 20260510171644 | 81 | 246 | 0.9 | 4.3 | 0.00 | 0.00 | 0.00 | 58 | 1005.7 |
| 20260510171144 | 81 | 51 | 0.9 | 2.6 | 0.00 | 0.00 | 0.00 | 56 | 1005.8 |
| 20260510170644 | 81 | 237 | 0.9 | 3.5 | 0.00 | 0.00 | 0.00 | 50 | 1005.8 |
| 20260510170137 | 80 | 89 | 0.9 | 3.5 | 0.00 | 0.00 | 0.00 | 44 | 1005.7 |
| 20260510165631 | 80 | 63 | 0.9 | 3.5 | 0.00 | 0.00 | 0.00 | 44 | 1005.8 |
| 20260510165125 | 80 | 240 | 0.9 | 5.2 | 0.00 | 0.00 | 0.00 | 47 | 1006.0 |
| 20260510164618 | 80 | 208 | 0.9 | 5.2 | 0.00 | 0.00 | 0.00 | 47 | 1006.0 |
| 20260510164114 | 80 | 76 | 0.9 | 4.3 | 0.00 | 0.00 | 0.00 | 46 | 1006.0 |
| 20260510163606 | 80 | 266 | 0.9 | 3.5 | 0.00 | 0.00 | 0.00 | 49 | 1006.0 |
| 20260510163101 | 79 | 212 | 0.9 | 3.5 | 0.00 | 0.00 | 0.00 | 49 | 1006.0 |
| 20260510162555 | 79 | 214 | 0.9 | 2.6 | 0.00 | 0.00 | 0.00 | 51 | 1006.1 |
| 20260510162308 | 79 | 178 | 1.7 | 3.5 | 0.00 | 0.00 | 0.00 | 50 | 1006.1 |
| 20260510161809 | 78 | 181 | 1.7 | 3.5 | 0.00 | 0.00 | 0.00 | 51 | 1006.2 |
| 20260510161037 | 78 | 238 | 1.7 | 6.1 | 0.00 | 0.00 | 0.00 | 49 | 1006.1 |
| 20260510160531 | 78 | 304 | 0.9 | 6.1 | 0.00 | 0.00 | 0.00 | 51 | 1006.2 |
| 20260510160025 | 78 | 226 | 0.9 | 4.3 | 0.00 | 0.00 | 0.00 | 49 | 1006.1 |
| 20260510155518 | 78 | 212 | 1.7 | 5.2 | 0.00 | 0.00 | 0.00 | 52 | 1006.1 |
| 20260510155014 | 78 | 220 | 0.9 | 4.3 | 0.00 | 0.00 | 0.00 | 52 | 1006.3 |
| 20260510154506 | 78 | 7 | 0.9 | 4.3 | 0.00 | 0.00 | 0.00 | 53 | 1006.3 |
| 20260510154001 | 77 | 198 | 0.0 | 1.7 | 0.00 | 0.00 | 0.00 | 51 | 1006.3 |
| 20260510153454 | 77 | 37 | 0.0 | 2.6 | 0.00 | 0.00 | 0.00 | 54 | 1006.3 |
| 20260510152949 | 77 | 236 | 0.9 | 3.5 | 0.00 | 0.00 | 0.00 | 53 | 1006.2 |
| 20260510152445 | 77 | 281 | 1.7 | 4.3 | 0.00 | 0.00 | 0.00 | 54 | 1006.3 |
| 20260510151937 | 76 | 139 | 1.7 | 5.2 | 0.00 | 0.00 | 0.00 | 53 | 1006.3 |
| 20260510151431 | 76 | 218 | 0.9 | 5.2 | 0.00 | 0.00 | 0.00 | 55 | 1006.3 |
| 20260510150924 | 76 | 80 | 0.9 | 3.5 | 0.00 | 0.00 | 0.00 | 55 | 1006.1 |
| 20260510150419 | 76 | 284 | 0.9 | 3.5 | 0.00 | 0.00 | 0.00 | 56 | 1006.1 |
| 20260510145914 | 76 | 210 | 0.9 | 3.5 | 0.00 | 0.00 | 0.00 | 56 | 1006.0 |
| 20260510145407 | 75 | 94 | 0.9 | 4.3 | 0.00 | 0.00 | 0.00 | 56 | 1006.0 |
| 20260510144900 | 75 | 187 | 0.9 | 4.3 | 0.00 | 0.00 | 0.00 | 57 | 1005.9 |
| 20260510144356 | 75 | 210 | 0.9 | 3.5 | 0.00 | 0.00 | 0.00 | 55 | 1005.8 |
| 20260510143849 | 74 | 214 | 0.9 | 2.6 | 0.00 | 0.00 | 0.00 | 57 | 1005.7 |
| 20260510143344 | 74 | 214 | 0.9 | 3.5 | 0.00 | 0.00 | 0.00 | 56 | 1005.8 |
| 20260510142840 | 74 | 92 | 0.9 | 5.2 | 0.00 | 0.00 | 0.00 | 57 | 1005.7 |
| 20260510142552 | 74 | 207 | 0.9 | 5.2 | 0.00 | 0.00 | 0.00 | 58 | 1005.7 |
| 20260510141330 | 74 | 209 | 0.0 | 0.9 | 0.00 | 0.00 | 0.00 | 61 | 1005.6 |
| 20260510140831 | 73 | 106 | 0.0 | 0.9 | 0.00 | 0.00 | 0.00 | 63 | 1005.7 |
| 20260510140330 | 73 | 105 | 0.0 | 0.9 | 0.00 | 0.00 | 0.00 | 65 | 1005.7 |
| 20260510135831 | 72 | 51 | 0.0 | 2.6 | 0.00 | 0.00 | 0.00 | 67 | 1005.8 |
| 20260510135330 | 72 | 77 | 0.0 | 2.6 | 0.00 | 0.00 | 0.00 | 68 | 1005.7 |
| 20260510134848 | 71 | 223 | 0.0 | 0.9 | 0.00 | 0.00 | 0.00 | 69 | 1005.8 |
| 20260510134329 | 70 | 223 | 0.0 | 0.9 | 0.00 | 0.00 | 0.00 | 70 | 1005.7 |
| 20260510134051 | 70 | 223 | 0.0 | 0.9 | 0.00 | 0.00 | 0.00 | 73 | 1005.7 |
| 20260510133550 | 69 | 223 | 0.0 | 0.9 | 0.00 | 0.00 | 0.00 | 78 | 1005.7 |
| 20260510132824 | 67 | 223 | 0.0 | 0.9 | 0.00 | 0.00 | 0.00 | 81 | 1005.8 |
| 20260510132325 | 66 | 223 | 0.0 | 2.6 | 0.00 | 0.00 | 0.00 | 84 | 1005.9 |
| 20260510131825 | 66 | 223 | 0.0 | 2.6 | 0.00 | 0.00 | 0.00 | 85 | 1005.8 |
| 20260510131324 | 65 | 124 | 0.0 | 0.9 | 0.00 | 0.00 | 0.00 | 88 | 1005.9 |
| 20260510130821 | 65 | 120 | 0.0 | 0.9 | 0.00 | 0.00 | 0.00 | 88 | 1006.0 |
| 20260510130320 | 64 | 120 | 0.0 | 0.9 | 0.00 | 0.00 | 0.00 | 88 | 1006.0 |
| 20260510125820 | 64 | 208 | 0.0 | 1.7 | 0.00 | 0.00 | 0.00 | 86 | 1006.1 |
| 20260510125551 | 63 | 208 | 0.0 | 1.7 | 0.00 | 0.00 | 0.00 | 86 | 1006.1 |
| 20260510124821 | 63 | 276 | 0.0 | 0.9 | 0.00 | 0.00 | 0.00 | 86 | 1006.1 |
| 20260510124537 | 62 | 278 | 0.0 | 0.0 | 0.00 | 0.00 | 0.00 | 87 | 1006.1 |
| 20260510123820 | 61 | 276 | 0.0 | 1.7 | 0.00 | 0.00 | 0.00 | 87 | 1006.1 |
| 20260510123320 | 60 | 276 | 0.0 | 1.7 | 0.00 | 0.00 | 0.00 | 87 | 1006.1 |
| 20260510122821 | 59 | 54 | 0.0 | 0.9 | 0.00 | 0.00 | 0.00 | 88 | 1006.0 |
| 20260510122537 | 59 | 54 | 0.0 | 1.7 | 0.00 | 0.00 | 0.00 | 88 | 1006.0 |
| 20260510121817 | 58 | 54 | 0.0 | 1.7 | 0.00 | 0.00 | 0.00 | 88 | 1006.0 |
| 20260510121316 | 58 | 72 | 0.0 | 2.6 | 0.00 | 0.00 | 0.00 | 88 | 1005.8 |
| 20260510120816 | 57 | 72 | 0.9 | 2.6 | 0.00 | 0.00 | 0.00 | 88 | 1005.8 |
| 20260510120317 | 56 | 85 | 0.0 | 1.7 | 0.00 | 0.00 | 0.00 | 88 | 1005.8 |
| 20260510115816 | 56 | 85 | 0.0 | 0.9 | 0.00 | 0.00 | 0.00 | 89 | 1005.8 |
| 20260510115038 | 55 | 113 | 0.0 | 0.9 | 0.00 | 0.00 | 0.00 | 89 | 1005.8 |
| 20260510114317 | 54 | 279 | 0.0 | 0.9 | 0.00 | 0.00 | 0.00 | 89 | 1005.7 |
| 20260510113816 | 53 | 278 | 0.0 | 0.9 | 0.00 | 0.00 | 0.00 | 89 | 1005.7 |
| 20260510113317 | 53 | 278 | 0.0 | 0.9 | 0.00 | 0.00 | 0.00 | 89 | 1005.5 |
| 20260510112817 | 52 | 278 | 0.0 | 0.0 | 0.00 | 0.00 | 0.00 | 89 | 1005.4 |
| 20260510112317 | 51 | 278 | 0.0 | 0.0 | 0.00 | 0.00 | 0.00 | 88 | 1005.2 |
| 20260510111816 | 51 | 278 | 0.0 | 0.0 | 0.00 | 0.00 | 0.00 | 88 | 1005.2 |
| 20260510111317 | 51 | 278 | 0.0 | 0.0 | 0.00 | 0.00 | 0.00 | 88 | 1005.0 |
| 20260510110817 | 50 | 278 | 0.0 | 0.0 | 0.00 | 0.00 | 0.00 | 88 | 1004.8 |
| 20260510110317 | 50 | 278 | 0.0 | 0.0 | 0.00 | 0.00 | 0.00 | 88 | 1004.7 |
| 20260510105817 | 50 | 278 | 0.0 | 0.0 | 0.00 | 0.00 | 0.00 | 88 | 1004.6 |
| 20260510105316 | 49 | 278 | 0.0 | 0.0 | 0.00 | 0.00 | 0.00 | 88 | 1004.6 |
| 20260510104816 | 49 | 278 | 0.0 | 0.0 | 0.00 | 0.00 | 0.00 | 88 | 1004.5 |
| 20260510104317 | 49 | 278 | 0.0 | 0.0 | 0.00 | 0.00 | 0.00 | 88 | 1004.5 |
| 20260510103816 | 49 | 278 | 0.0 | 0.0 | 0.00 | 0.00 | 0.00 | 88 | 1004.4 |
| 20260510103317 | 49 | 278 | 0.0 | 0.0 | 0.00 | 0.00 | 0.00 | 88 | 1004.4 |
| 20260510102816 | 49 | 278 | 0.0 | 0.0 | 0.00 | 0.00 | 0.00 | 88 | 1004.4 |
| 20260510102315 | 49 | 278 | 0.0 | 0.0 | 0.00 | 0.00 | 0.00 | 88 | 1004.4 |
| 20260510101814 | 49 | 278 | 0.0 | 0.9 | 0.00 | 0.00 | 0.00 | 88 | 1004.3 |
| 20260510101314 | 49 | 278 | 0.0 | 0.9 | 0.00 | 0.00 | 0.00 | 88 | 1004.3 |
| 20260510100808 | 49 | 278 | 0.0 | 0.0 | 0.00 | 0.00 | 0.00 | 88 | 1004.3 |
| 20260510100301 | 49 | 278 | 0.0 | 0.0 | 0.00 | 0.00 | 0.00 | 88 | 1004.3 |
| 20260510095756 | 49 | 278 | 0.0 | 0.0 | 0.00 | 0.00 | 0.00 | 88 | 1004.3 |
| 20260510095250 | 49 | 278 | 0.0 | 0.0 | 0.00 | 0.00 | 0.00 | 88 | 1004.2 |
| 20260510094744 | 49 | 278 | 0.0 | 0.0 | 0.00 | 0.00 | 0.00 | 88 | 1004.2 |
| 20260510094237 | 49 | 278 | 0.0 | 0.0 | 0.00 | 0.00 | 0.00 | 88 | 1004.2 |
| 20260510093732 | 49 | 278 | 0.0 | 0.0 | 0.00 | 0.00 | 0.00 | 88 | 1004.2 |
| 20260510093452 | 50 | 278 | 0.0 | 0.0 | 0.00 | 0.00 | 0.00 | 88 | 1004.2 |
| 20260510092721 | 50 | 278 | 0.0 | 0.0 | 0.00 | 0.00 | 0.00 | 88 | 1004.2 |
| 20260510092214 | 50 | 278 | 0.0 | 0.0 | 0.00 | 0.00 | 0.00 | 88 | 1004.1 |
| 20260510091940 | 50 | 278 | 0.0 | 0.0 | 0.00 | 0.00 | 0.00 | 88 | 1004.1 |
| 20260510091201 | 50 | 278 | 0.0 | 0.9 | 0.00 | 0.00 | 0.00 | 88 | 1004.0 |
| 20260510090656 | 50 | 278 | 0.0 | 0.9 | 0.00 | 0.00 | 0.00 | 88 | 1004.0 |
| 20260510090150 | 49 | 278 | 0.0 | 0.9 | 0.00 | 0.00 | 0.00 | 88 | 1004.0 |
| 20260510085645 | 49 | 278 | 0.0 | 0.9 | 0.00 | 0.00 | 0.00 | 88 | 1003.9 |
| 20260510085138 | 49 | 278 | 0.0 | 0.0 | 0.00 | 0.00 | 0.00 | 88 | 1003.9 |
| 20260510084633 | 49 | 278 | 0.0 | 0.0 | 0.00 | 0.00 | 0.00 | 88 | 1003.8 |
| 20260510084126 | 49 | 278 | 0.0 | 0.0 | 0.00 | 0.00 | 0.00 | 88 | 1003.7 |
| 20260510083620 | 50 | 278 | 0.0 | 0.0 | 0.00 | 0.00 | 0.00 | 88 | 1003.6 |
| 20260510083114 | 50 | 278 | 0.0 | 0.0 | 0.00 | 0.00 | 0.00 | 88 | 1003.5 |
| 20260510082608 | 50 | 278 | 0.0 | 0.0 | 0.00 | 0.00 | 0.00 | 88 | 1003.5 |
| 20260510082102 | 50 | 278 | 0.0 | 0.0 | 0.00 | 0.00 | 0.00 | 88 | 1003.4 |
| 20260510081818 | 50 | 278 | 0.0 | 0.0 | 0.00 | 0.00 | 0.00 | 88 | 1003.4 |
| 20260510081049 | 50 | 278 | 0.0 | 0.0 | 0.00 | 0.00 | 0.00 | 88 | 1003.2 |
| 20260510080544 | 50 | 278 | 0.0 | 0.0 | 0.00 | 0.00 | 0.00 | 88 | 1003.2 |
| 20260510080037 | 50 | 278 | 0.0 | 0.0 | 0.00 | 0.00 | 0.00 | 88 | 1003.1 |
| 20260510075530 | 50 | 278 | 0.0 | 0.0 | 0.00 | 0.00 | 0.00 | 88 | 1003.1 |
| 20260510075248 | 50 | 278 | 0.0 | 0.0 | 0.00 | 0.00 | 0.00 | 88 | 1003.1 |
| 20260510074738 | 50 | 278 | 0.0 | 0.0 | 0.00 | 0.00 | 0.00 | 88 | 1003.0 |
| 20260510074011 | 50 | 284 | 0.0 | 0.0 | 0.00 | 0.00 | 0.00 | 88 | 1002.9 |
| 20260510073506 | 50 | 285 | 0.0 | 0.0 | 0.00 | 0.00 | 0.00 | 88 | 1002.9 |
| 20260510073006 | 50 | 285 | 0.0 | 0.0 | 0.00 | 0.00 | 0.00 | 88 | 1002.9 |
| 20260510072006 | 51 | 284 | 0.0 | 0.0 | 0.00 | 0.00 | 0.00 | 88 | 1002.9 |
| 20260510071506 | 51 | 284 | 0.0 | 0.0 | 0.00 | 0.00 | 0.00 | 88 | 1002.8 |
| 20260510071006 | 51 | 284 | 0.0 | 0.0 | 0.00 | 0.00 | 0.00 | 88 | 1002.8 |
| 20260510070734 | 52 | 284 | 0.0 | 0.0 | 0.00 | 0.00 | 0.00 | 88 | 1002.7 |
| 20260510070006 | 52 | 284 | 0.0 | 0.0 | 0.00 | 0.00 | 0.00 | 87 | 1002.8 |
| 20260510065504 | 52 | 285 | 0.0 | 0.0 | 0.00 | 0.00 | 0.00 | 87 | 1002.8 |
| 20260510065002 | 52 | 285 | 0.0 | 0.0 | 0.00 | 0.00 | 0.00 | 87 | 1002.8 |
| 20260510064502 | 51 | 284 | 0.0 | 0.0 | 0.00 | 0.00 | 0.00 | 88 | 1002.9 |
| 20260510064003 | 51 | 284 | 0.0 | 0.0 | 0.00 | 0.00 | 0.00 | 88 | 1002.7 |
| 20260510063500 | 52 | 285 | 0.0 | 0.0 | 0.00 | 0.00 | 0.00 | 88 | 1002.7 |
| 20260510063000 | 52 | 284 | 0.0 | 0.0 | 0.00 | 0.00 | 0.00 | 88 | 1002.7 |
| 20260510062720 | 52 | 285 | 0.0 | 0.0 | 0.00 | 0.00 | 0.00 | 88 | 1002.7 |
| 20260510062000 | 52 | 284 | 0.0 | 0.0 | 0.00 | 0.00 | 0.00 | 88 | 1002.7 |
| 20260510060956 | 53 | 284 | 0.0 | 0.0 | 0.00 | 0.00 | 0.00 | 87 | 1002.6 |
| 20260510060454 | 53 | 284 | 0.0 | 0.0 | 0.00 | 0.00 | 0.00 | 88 | 1002.5 |
| 20260510055948 | 53 | 284 | 0.0 | 0.0 | 0.00 | 0.00 | 0.00 | 88 | 1002.5 |
| 20260510055714 | 53 | 285 | 0.0 | 0.0 | 0.00 | 0.00 | 0.00 | 88 | 1002.5 |
| 20260510054936 | 53 | 284 | 0.0 | 0.0 | 0.00 | 0.00 | 0.00 | 88 | 1002.6 |
| 20260510054429 | 53 | 285 | 0.0 | 0.0 | 0.00 | 0.00 | 0.00 | 88 | 1002.6 |
| 20260510053924 | 53 | 285 | 0.0 | 0.0 | 0.00 | 0.00 | 0.00 | 88 | 1002.6 |
| 20260510053418 | 53 | 285 | 0.0 | 0.0 | 0.00 | 0.00 | 0.00 | 88 | 1002.7 |
| 20260510052912 | 53 | 284 | 0.0 | 0.0 | 0.00 | 0.00 | 0.00 | 88 | 1002.7 |
| 20260510052406 | 53 | 285 | 0.0 | 0.0 | 0.00 | 0.00 | 0.00 | 88 | 1002.8 |
| 20260510051900 | 53 | 285 | 0.0 | 0.0 | 0.00 | 0.00 | 0.00 | 88 | 1002.8 |
| 20260510051354 | 53 | 285 | 0.0 | 0.0 | 0.00 | 0.00 | 0.00 | 88 | 1002.8 |
| 20260510051108 | 54 | 285 | 0.0 | 0.0 | 0.00 | 0.00 | 0.00 | 88 | 1002.8 |
| 20260510050342 | 54 | 284 | 0.0 | 0.0 | 0.00 | 0.00 | 0.00 | 88 | 1002.8 |
| 20260510050057 | 54 | 284 | 0.0 | 0.0 | 0.00 | 0.00 | 0.00 | 88 | 1002.9 |
| 20260510045330 | 54 | 285 | 0.0 | 0.0 | 0.00 | 0.00 | 0.00 | 88 | 1002.9 |
| 20260510044825 | 54 | 284 | 0.0 | 0.0 | 0.00 | 0.00 | 0.00 | 88 | 1002.9 |
| 20260510044318 | 54 | 284 | 0.0 | 0.0 | 0.00 | 0.00 | 0.00 | 88 | 1002.9 |
| 20260510043812 | 54 | 284 | 0.0 | 0.0 | 0.00 | 0.00 | 0.00 | 88 | 1002.9 |
| 20260510043531 | 55 | 285 | 0.0 | 0.0 | 0.00 | 0.00 | 0.00 | 88 | 1002.9 |
| 20260510042800 | 55 | 284 | 0.0 | 0.0 | 0.00 | 0.00 | 0.00 | 88 | 1002.9 |
| 20260510042255 | 55 | 284 | 0.0 | 0.0 | 0.00 | 0.00 | 0.00 | 88 | 1002.9 |
| 20260510041749 | 55 | 285 | 0.0 | 0.0 | 0.00 | 0.00 | 0.00 | 88 | 1002.9 |
| 20260510041241 | 55 | 285 | 0.0 | 0.0 | 0.00 | 0.00 | 0.00 | 88 | 1002.9 |
| 20260510040740 | 55 | 285 | 0.0 | 0.0 | 0.00 | 0.00 | 0.00 | 88 | 1002.9 |
| 20260510040241 | 56 | 284 | 0.0 | 0.0 | 0.00 | 0.00 | 0.00 | 88 | 1002.8 |
| 20260510035739 | 56 | 284 | 0.0 | 0.0 | 0.00 | 0.00 | 0.00 | 88 | 1002.7 |
| 20260510035239 | 56 | 285 | 0.0 | 0.0 | 0.00 | 0.00 | 0.00 | 88 | 1002.8 |
| 20260510034740 | 56 | 284 | 0.0 | 0.0 | 0.00 | 0.00 | 0.00 | 87 | 1002.7 |
| 20260510033741 | 56 | 285 | 0.0 | 0.0 | 0.00 | 0.00 | 0.00 | 87 | 1002.6 |
| 20260510033242 | 57 | 285 | 0.0 | 0.0 | 0.00 | 0.00 | 0.00 | 87 | 1002.6 |
| 20260510032742 | 57 | 284 | 0.0 | 0.0 | 0.00 | 0.00 | 0.00 | 86 | 1002.6 |
| 20260510032459 | 57 | 285 | 0.0 | 0.0 | 0.00 | 0.00 | 0.00 | 86 | 1002.6 |
| 20260510031737 | 58 | 285 | 0.0 | 0.0 | 0.00 | 0.00 | 0.00 | 86 | 1002.6 |
| 20260510031238 | 58 | 285 | 0.0 | 0.0 | 0.00 | 0.00 | 0.00 | 86 | 1002.5 |
| 20260510030738 | 58 | 285 | 0.0 | 0.0 | 0.00 | 0.00 | 0.00 | 86 | 1002.5 |
| 20260510030457 | 59 | 285 | 0.0 | 0.0 | 0.00 | 0.00 | 0.00 | 86 | 1002.5 |
| 20260510025735 | 59 | 285 | 0.0 | 0.0 | 0.00 | 0.00 | 0.00 | 85 | 1002.5 |
| 20260510025235 | 59 | 285 | 0.0 | 0.0 | 0.00 | 0.00 | 0.00 | 85 | 1002.5 |
| 20260510024735 | 59 | 284 | 0.0 | 0.0 | 0.00 | 0.00 | 0.00 | 85 | 1002.4 |
| 20260510024236 | 59 | 284 | 0.0 | 0.0 | 0.00 | 0.00 | 0.00 | 84 | 1002.4 |
| 20260510023736 | 60 | 284 | 0.0 | 0.0 | 0.00 | 0.00 | 0.00 | 84 | 1002.4 |
| 20260510023457 | 60 | 284 | 0.0 | 0.0 | 0.00 | 0.00 | 0.00 | 84 | 1002.5 |
| 20260510022732 | 60 | 284 | 0.0 | 0.0 | 0.00 | 0.00 | 0.00 | 84 | 1002.4 |
| 20260510022229 | 60 | 284 | 0.0 | 0.0 | 0.00 | 0.00 | 0.00 | 83 | 1002.4 |
| 20260510021728 | 60 | 284 | 0.0 | 0.0 | 0.00 | 0.00 | 0.00 | 83 | 1002.4 |
| 20260510021450 | 60 | 284 | 0.0 | 0.0 | 0.00 | 0.00 | 0.00 | 82 | 1002.3 |
| 20260510020725 | 60 | 284 | 0.0 | 0.0 | 0.00 | 0.00 | 0.00 | 82 | 1002.3 |
| 20260510020447 | 60 | 284 | 0.0 | 0.0 | 0.00 | 0.00 | 0.00 | 81 | 1002.3 |
| 20260510015719 | 61 | 284 | 0.0 | 0.0 | 0.00 | 0.00 | 0.00 | 80 | 1002.2 |
| 20260510015217 | 61 | 284 | 0.0 | 0.0 | 0.00 | 0.00 | 0.00 | 80 | 1002.2 |
| 20260510014716 | 61 | 284 | 0.0 | 0.0 | 0.00 | 0.00 | 0.00 | 80 | 1002.2 |
| 20260510014431 | 62 | 284 | 0.0 | 0.0 | 0.00 | 0.00 | 0.00 | 80 | 1002.1 |
| 20260510013938 | 62 | 284 | 0.0 | 0.0 | 0.00 | 0.00 | 0.00 | 80 | 1002.1 |
| 20260510013431 | 61 | 284 | 0.0 | 0.0 | 0.00 | 0.00 | 0.00 | 80 | 1001.9 |
| 20260510012707 | 61 | 284 | 0.0 | 0.0 | 0.00 | 0.00 | 0.00 | 80 | 1001.9 |
| 20260510012206 | 61 | 284 | 0.0 | 0.0 | 0.00 | 0.00 | 0.00 | 80 | 1001.8 |
| 20260510011704 | 61 | 284 | 0.0 | 0.0 | 0.00 | 0.00 | 0.00 | 81 | 1001.8 |
| 20260510011204 | 61 | 284 | 0.0 | 0.0 | 0.00 | 0.00 | 0.00 | 81 | 1001.7 |
| 20260510010659 | 61 | 284 | 0.0 | 0.0 | 0.00 | 0.00 | 0.00 | 81 | 1001.7 |
| 20260510010157 | 61 | 284 | 0.0 | 0.0 | 0.00 | 0.00 | 0.00 | 80 | 1001.7 |
| 20260510005155 | 61 | 284 | 0.0 | 0.0 | 0.00 | 0.00 | 0.00 | 80 | 1001.7 |
| 20260510004649 | 61 | 284 | 0.0 | 0.0 | 0.00 | 0.00 | 0.00 | 80 | 1001.7 |
| 20260510004414 | 62 | 284 | 0.0 | 0.0 | 0.00 | 0.00 | 0.00 | 80 | 1001.7 |
| 20260510003637 | 62 | 284 | 0.0 | 0.0 | 0.00 | 0.00 | 0.00 | 79 | 1001.6 |
| 20260510003131 | 62 | 284 | 0.0 | 0.0 | 0.00 | 0.00 | 0.00 | 79 | 1001.5 |
| 20260510002625 | 62 | 284 | 0.0 | 0.0 | 0.00 | 0.00 | 0.00 | 78 | 1001.5 |
| 20260510002347 | 62 | 284 | 0.0 | 0.0 | 0.00 | 0.00 | 0.00 | 78 | 1001.5 |
| 20260510001614 | 63 | 284 | 0.0 | 0.9 | 0.00 | 0.00 | 0.00 | 78 | 1001.4 |
| 20260510001107 | 63 | 284 | 0.0 | 0.9 | 0.00 | 0.00 | 0.00 | 78 | 1001.4 |
| 20260510000828 | 63 | 285 | 0.0 | 0.0 | 0.00 | 0.00 | 0.00 | 77 | 1001.4 |
| 20260510000055 | 64 | 285 | 0.0 | 0.0 | 0.00 | 0.00 | 0.00 | 77 | 1001.3 |
| 20260509235548 | 64 | 284 | 0.0 | 0.0 | 0.00 | 0.00 | 0.00 | 76 | 1001.3 |
| 20260509235044 | 64 | 285 | 0.0 | 0.0 | 0.00 | 0.00 | 0.00 | 75 | 1001.3 |
| 20260509234536 | 65 | 284 | 0.0 | 0.0 | 0.00 | 0.00 | 0.00 | 74 | 1001.2 |
| 20260509234031 | 65 | 285 | 0.0 | 0.0 | 0.00 | 0.00 | 0.00 | 74 | 1001.1 |
| 20260509233524 | 66 | 285 | 0.0 | 0.9 | 0.00 | 0.00 | 0.00 | 72 | 1001.3 |
| 20260509233018 | 66 | 285 | 0.0 | 0.9 | 0.00 | 0.00 | 0.00 | 71 | 1001.3 |
| 20260509232735 | 67 | 284 | 0.0 | 0.0 | 0.00 | 0.00 | 0.00 | 70 | 1001.1 |
| 20260509232007 | 68 | 284 | 0.0 | 0.0 | 0.00 | 0.00 | 0.00 | 68 | 1001.1 |
| 20260509231500 | 69 | 284 | 0.0 | 0.0 | 0.00 | 0.00 | 0.00 | 67 | 1001.1 |
| 20260509230955 | 69 | 284 | 0.0 | 0.0 | 0.00 | 0.00 | 0.00 | 66 | 1001.1 |
| 20260509230448 | 70 | 284 | 0.0 | 0.0 | 0.00 | 0.00 | 0.00 | 66 | 1001.0 |
| 20260509225945 | 69 | 284 | 0.0 | 0.9 | 0.00 | 0.00 | 0.00 | 67 | 1001.0 |
| 20260509225436 | 70 | 284 | 0.0 | 0.9 | 0.00 | 0.00 | 0.00 | 66 | 1001.1 |
| 20260509224931 | 71 | 283 | 0.0 | 0.9 | 0.00 | 0.00 | 0.00 | 66 | 1001.0 |
| 20260509224425 | 71 | 288 | 0.0 | 2.6 | 0.00 | 0.00 | 0.00 | 66 | 1001.0 |
| 20260509223919 | 71 | 46 | 0.0 | 2.6 | 0.00 | 0.00 | 0.00 | 64 | 1001.0 |
| 20260509223638 | 71 | 21 | 0.0 | 1.7 | 0.00 | 0.00 | 0.00 | 66 | 1001.1 |
| 20260509223126 | 71 | 68 | 0.0 | 1.7 | 0.00 | 0.00 | 0.00 | 66 | 1001.1 |
| 20260509222400 | 71 | 56 | 0.0 | 1.7 | 0.00 | 0.00 | 0.00 | 69 | 1001.1 |
| 20260509221855 | 71 | 56 | 0.9 | 4.3 | 0.00 | 0.00 | 0.00 | 67 | 1001.0 |
| 20260509221349 | 71 | 96 | 0.9 | 4.3 | 0.00 | 0.00 | 0.00 | 67 | 1001.0 |
| 20260509220844 | 71 | 56 | 1.7 | 4.3 | 0.00 | 0.00 | 0.00 | 66 | 1001.0 |
| 20260509220337 | 72 | 87 | 1.7 | 3.5 | 0.00 | 0.00 | 0.00 | 65 | 1001.1 |
| 20260509215831 | 73 | 73 | 0.9 | 2.6 | 0.00 | 0.00 | 0.00 | 65 | 1001.0 |
| 20260509215324 | 73 | 49 | 0.0 | 2.6 | 0.00 | 0.00 | 0.00 | 64 | 1001.0 |
| 20260509215039 | 72 | 49 | 0.9 | 2.6 | 0.00 | 0.00 | 0.00 | 66 | 1001.0 |
| 20260509214314 | 72 | 49 | 0.9 | 3.5 | 0.00 | 0.00 | 0.00 | 65 | 1000.9 |
| 20260509213301 | 73 | 75 | 0.9 | 1.7 | 0.00 | 0.00 | 0.00 | 62 | 1000.9 |
| 20260509212755 | 73 | 277 | 0.0 | 1.7 | 0.00 | 0.00 | 0.00 | 62 | 1000.9 |
| 20260509212250 | 73 | 91 | 0.9 | 2.6 | 0.00 | 0.00 | 0.00 | 62 | 1000.9 |
| 20260509211745 | 73 | 84 | 0.9 | 4.3 | 0.00 | 0.00 | 0.00 | 61 | 1000.8 |
| 20260509211504 | 73 | 240 | 1.7 | 6.1 | 0.00 | 0.00 | 0.00 | 60 | 1000.7 |
| 20260509210951 | 72 | 170 | 1.7 | 6.1 | 0.00 | 0.00 | 0.00 | 62 | 1000.6 |
| 20260509210225 | 72 | 68 | 1.7 | 4.3 | 0.00 | 0.00 | 0.00 | 66 | 1000.7 |
| 20260509205945 | 72 | 56 | 1.7 | 5.2 | 0.00 | 0.00 | 0.00 | 64 | 1000.7 |
| 20260509205444 | 71 | 48 | 1.7 | 6.1 | 0.00 | 0.00 | 0.00 | 67 | 1000.6 |
| 20260509204707 | 72 | 82 | 1.7 | 5.2 | 0.00 | 0.00 | 0.00 | 68 | 1000.6 |
| 20260509204201 | 71 | 65 | 1.7 | 4.3 | 0.00 | 0.00 | 0.00 | 66 | 1000.8 |
| 20260509203920 | 72 | 58 | 1.7 | 4.3 | 0.00 | 0.00 | 0.00 | 65 | 1000.7 |
| 20260509203149 | 73 | 147 | 0.9 | 5.2 | 0.00 | 0.00 | 0.00 | 63 | 1000.9 |
| 20260509202644 | 74 | 251 | 0.9 | 5.2 | 0.00 | 0.00 | 0.00 | 60 | 1001.0 |
| 20260509202137 | 74 | 248 | 1.7 | 6.1 | 0.00 | 0.00 | 0.00 | 55 | 1001.0 |
| 20260509201631 | 74 | 233 | 1.7 | 6.1 | 0.00 | 0.00 | 0.00 | 53 | 1001.0 |
| 20260509201125 | 74 | 173 | 0.9 | 4.3 | 0.00 | 0.00 | 0.00 | 56 | 1001.1 |
| 20260509200619 | 73 | 276 | 0.9 | 4.3 | 0.00 | 0.00 | 0.00 | 55 | 1001.1 |
| 20260509200338 | 73 | 233 | 0.0 | 6.1 | 0.00 | 0.00 | 0.00 | 62 | 1001.2 |
| 20260509195607 | 73 | 179 | 0.9 | 6.1 | 0.00 | 0.00 | 0.00 | 58 | 1001.3 |
| 20260509195100 | 73 | 186 | 0.9 | 1.7 | 0.00 | 0.00 | 0.00 | 58 | 1001.4 |
| 20260509194555 | 73 | 206 | 0.0 | 2.6 | 0.00 | 0.00 | 0.00 | 58 | 1001.4 |
| 20260509194049 | 73 | 240 | 0.0 | 2.6 | 0.00 | 0.00 | 0.00 | 61 | 1001.4 |
| 20260509193544 | 73 | 41 | 0.0 | 1.7 | 0.00 | 0.00 | 0.00 | 60 | 1001.4 |
| 20260509193037 | 73 | 235 | 0.0 | 1.7 | 0.00 | 0.00 | 0.00 | 60 | 1001.5 |
| 20260509192530 | 73 | 250 | 0.0 | 1.7 | 0.00 | 0.00 | 0.00 | 58 | 1001.5 |
| 20260509192024 | 72 | 229 | 0.0 | 0.9 | 0.00 | 0.00 | 0.00 | 62 | 1001.4 |
| 20260509191518 | 71 | 229 | 0.0 | 1.7 | 0.00 | 0.00 | 0.00 | 63 | 1001.6 |
| 20260509191014 | 70 | 229 | 0.0 | 1.7 | 0.00 | 0.00 | 0.00 | 63 | 1001.7 |
| 20260509190507 | 69 | 229 | 0.0 | 1.7 | 0.00 | 0.00 | 0.00 | 63 | 1001.9 |
| 20260509190001 | 69 | 158 | 0.0 | 0.0 | 0.00 | 0.00 | 0.00 | 67 | 1002.1 |
| 20260509185454 | 68 | 158 | 0.0 | 0.0 | 0.00 | 0.00 | 0.00 | 69 | 1002.2 |
| 20260509184949 | 68 | 158 | 0.0 | 0.9 | 0.00 | 0.00 | 0.00 | 67 | 1002.2 |
| 20260509184444 | 68 | 158 | 0.0 | 1.7 | 0.00 | 0.00 | 0.00 | 65 | 1002.4 |
| 20260509184155 | 69 | 158 | 0.0 | 2.6 | 0.00 | 0.00 | 0.00 | 64 | 1002.4 |
| 20260509183430 | 69 | 241 | 0.0 | 2.6 | 0.00 | 0.00 | 0.00 | 63 | 1002.4 |
| 20260509182925 | 70 | 226 | 0.0 | 3.5 | 0.00 | 0.00 | 0.00 | 61 | 1002.4 |
| 20260509182419 | 70 | 207 | 0.9 | 5.2 | 0.00 | 0.00 | 0.00 | 59 | 1002.5 |
| 20260509181914 | 71 | 221 | 0.9 | 7.0 | 0.00 | 0.00 | 0.00 | 56 | 1002.4 |
| 20260509181628 | 71 | 195 | 1.7 | 7.0 | 0.00 | 0.00 | 0.00 | 55 | 1002.5 |
| 20260509180901 | 71 | 335 | 1.7 | 4.3 | 0.00 | 0.00 | 0.00 | 56 | 1002.6 |